FW8315 Weather Reports


time (UTC)temp
C
wind
direction
speed
KPH
gust
KPH
rain 1hr
cm
rain 24hr
cm
rain mn
cm
humidity
%
barometer
mb
20260505073017 17 27 6.4 14.5 0.00 0.00 0.00 40 1016.2
20260505072022 17 11 4.8 14.5 0.00 0.00 0.00 44 1016.1
20260505071027 17 14 4.8 11.3 0.00 0.00 0.00 43 1016.1
20260505070038 17 5 4.8 12.9 0.00 0.00 0.00 45 1016.1
20260505065020 16 27 4.8 12.9 0.00 0.00 0.00 44 1016.0
20260505064025 16 10 3.2 12.9 0.00 0.00 0.00 46 1015.8
20260505063030 16 353 1.6 6.4 0.00 0.00 0.00 46 1015.9
20260505062018 16 352 3.2 11.3 0.00 0.00 0.00 49 1015.9
20260505061024 16 4 1.6 6.4 0.00 0.00 0.00 53 1015.9
20260505060028 15 11 0.0 3.2 0.00 0.00 0.00 52 1015.9
20260505055016 15 2 3.2 6.4 0.00 0.00 0.00 53 1015.8
20260505054021 15 98 0.0 0.0 0.00 0.00 0.00 54 1015.6
20260505053026 15 99 0.0 0.0 0.00 0.00 0.00 53 1015.7
20260505052031 14 99 0.0 0.0 0.00 0.00 0.00 58 1015.6
20260505051019 13 99 0.0 0.0 0.00 0.00 0.00 58 1015.6
20260505041031 9 100 0.0 0.0 0.00 0.00 0.00 80 1015.2
20260505040020 7 100 0.0 0.0 0.00 0.00 0.00 82 1015.1
20260505035024 6 100 0.0 0.0 0.00 0.00 0.00 82 1015.2
20260505034029 5 101 0.0 0.0 0.00 0.00 0.00 82 1015.1
20260505033017 3 101 0.0 0.0 0.00 0.00 0.00 82 1015.0
20260505032022 3 101 0.0 0.0 0.00 0.00 0.00 82 1015.0
20260505031027 3 101 0.0 0.0 0.00 0.00 0.00 82 1015.1
20260505030015 3 101 0.0 0.0 0.00 0.00 0.00 82 1014.9
20260505025040 3 101 0.0 0.0 0.00 0.00 0.00 81 1014.9
20260505020030 3 101 0.0 0.0 0.00 0.00 0.00 81 1014.9
20260505015017 3 101 0.0 0.0 0.00 0.00 0.00 81 1014.7
20260505014021 3 101 0.0 0.0 0.00 0.00 0.00 81 1014.8
20260505013026 3 101 0.0 0.0 0.00 0.00 0.00 80 1014.7
20260505012031 4 101 0.0 0.0 0.00 0.00 0.00 80 1014.7
20260505011019 4 101 0.0 0.0 0.00 0.00 0.00 80 1014.7
20260505010024 4 101 0.0 0.0 0.00 0.00 0.00 80 1014.7
20260505005029 4 100 0.0 0.0 0.00 0.00 0.00 80 1014.8
20260505004017 4 100 0.0 0.0 0.00 0.00 0.00 80 1014.8
20260505003022 4 100 0.0 0.0 0.00 0.00 0.00 80 1014.7
20260505002027 4 100 0.0 0.0 0.00 0.00 0.00 80 1014.6
20260505001032 4 100 0.0 0.0 0.00 0.00 0.00 80 1014.8
20260505000020 4 100 0.0 0.0 0.00 0.00 0.00 80 1014.8
20260504235105 4 100 0.0 0.0 0.00 0.00 0.00 80 1014.9
20260504222018 5 100 0.0 0.0 0.00 0.00 0.00 79 1015.5
20260504221023 5 100 0.0 0.0 0.00 0.00 0.00 79 1015.6
20260504220028 5 100 0.0 0.0 0.00 0.00 0.00 78 1015.5
20260504215016 5 100 0.0 0.0 0.00 0.00 0.00 77 1015.6
20260504214021 5 100 0.0 0.0 0.00 0.00 0.00 78 1015.7
20260504213026 5 100 0.0 0.0 0.00 0.00 0.00 78 1015.7
20260504212031 5 100 0.0 0.0 0.00 0.00 0.00 77 1015.6
20260504211019 6 100 0.0 0.0 0.00 0.00 0.00 77 1015.6
20260504210024 6 100 0.0 0.0 0.00 0.00 0.00 76 1015.7
20260504205030 6 100 0.0 0.0 0.00 0.00 0.00 76 1015.6
20260504204017 6 100 0.0 0.0 0.00 0.00 0.00 76 1015.6
20260504203022 6 100 0.0 0.0 0.00 0.00 0.00 76 1015.5
20260504202027 6 100 0.0 0.0 0.00 0.00 0.00 76 1015.6
20260504201032 6 100 0.0 0.0 0.00 0.00 0.00 75 1015.7
20260504200020 6 100 0.0 0.0 0.00 0.00 0.00 74 1015.6
20260504195025 7 100 0.0 0.0 0.00 0.00 0.00 74 1015.6
20260504194030 7 100 0.0 0.0 0.00 0.00 0.00 73 1015.7
20260504193018 7 100 0.0 0.0 0.00 0.00 0.00 72 1015.6
20260504192023 7 100 0.0 0.0 0.00 0.00 0.00 71 1015.6
20260504191048 7 100 0.0 0.0 0.00 0.00 0.00 71 1015.7
20260504174022 10 100 0.0 0.0 0.00 0.00 0.00 60 1015.3
20260504173027 11 100 0.0 0.0 0.00 0.00 0.00 58 1015.0
20260504172032 11 100 0.0 0.0 0.00 0.00 0.00 56 1015.0
20260504171020 12 100 0.0 0.0 0.00 0.00 0.00 55 1015.0
20260504151028 16 38 8.0 16.1 0.00 0.00 0.00 48 1014.4
20260504141025 18 359 14.5 30.6 0.00 0.00 0.00 45 1013.9
20260504081016 13 329 9.7 22.5 0.00 0.00 0.00 59 1015.4